Swainsboro, GA

3:32 PM EDT on July 26, 2016 (GMT -0400)
Emanuel County

Weather History for KSBO - July, 2014

Change the Weather History Date:

Thursday, July 3, 2014

  Actual Average Record
Temperature  
Mean Temperature 86 °F -  
Max Temperature 98 °F 92 °F 98 °F (2014)
Min Temperature 73 °F 69 °F 71 °F (2013)
Cooling Degree Days 20    
Growing Degree Days 36 (Base 50)    
Moisture  
Dew Point 74 °F    
Average Humidity 73    
Maximum Humidity 100    
Minimum Humidity 37    
Precipitation  
Precipitation 0.00 in - - ()
Sea Level Pressure  
Sea Level Pressure 29.94 in    
Wind  
Wind Speed 3 mph (WNW)    
Max Wind Speed 15 mph    
Max Gust Speed 22 mph    
Visibility 10 miles    
Events Thunderstorm    
Averages and records for this station are not official NWS values.
T = Trace of Precipitation, MM = Missing Value Source: NWS Daily Summary

Daily Weather History Graph

Daily Weather History Graph

Search for Another Location

Airport or City:

Trip Planner

Search our weather history database for the weather conditions in past years. The results will help you decide how hot, cold, wet, or windy it might be!

Date:

Astronomy

Jul. 03, 2014 Rise Set
Actual Time 6:26 AM EDT 8:40 PM EDT
Civil Twilight 5:57 AM EDT 9:09 PM EDT
Nautical Twilight 5:23 AM EDT 9:44 PM EDT
Astronomical Twilight 4:45 AM EDT 10:21 PM EDT
Moon 12:04 PM EDT (7/3) No Moon Set
Length of Visible Light 15h 11m
Length of Day
14h 14m
Waxing Crescent, 33% of the Moon is Illuminated
Jul 3
Waxing Crescent
Jul 5
First Quarter
Jul 12
Full
Jul 18
Last Quarter
Jul 26
New

Hourly Weather History & Observations

Time (EDT) Temp. Heat Index Dew Point Humidity Pressure Visibility Wind Dir Wind Speed Gust Speed Precip Events Conditions
12:15 AM 78.8 °F - 78.8 °F 100% 29.98 in 10.0 mi Calm Calm - N/A   Scattered Clouds
12:35 AM 78.8 °F - 78.8 °F 100% 29.98 in 10.0 mi Calm Calm - N/A   Mostly Cloudy
12:55 AM 82.4 °F 90.9 °F 77.0 °F 84% 29.97 in 10.0 mi ESE 4.6 mph - N/A   Scattered Clouds
1:15 AM 82.4 °F 90.9 °F 77.0 °F 84% 29.98 in 10.0 mi ESE 4.6 mph - N/A   Scattered Clouds
1:35 AM 80.6 °F 87.1 °F 77.0 °F 89% 29.97 in 10.0 mi Calm Calm - N/A   Scattered Clouds
1:55 AM 80.6 °F 87.1 °F 77.0 °F 89% 29.96 in 10.0 mi Calm Calm - N/A   Scattered Clouds
2:15 AM 78.8 °F - 78.8 °F 100% 29.96 in 10.0 mi Calm Calm - N/A   Clear
2:35 AM 77.0 °F - 77.0 °F 100% 29.95 in 10.0 mi Calm Calm - N/A   Clear
2:55 AM 77.0 °F - 77.0 °F 100% 29.95 in 10.0 mi Calm Calm - N/A   Clear
3:15 AM 77.0 °F - 77.0 °F 100% 29.95 in 10.0 mi Calm Calm - N/A   Clear
3:35 AM 77.0 °F - 77.0 °F 100% 29.94 in 10.0 mi Calm Calm - N/A   Scattered Clouds
3:55 AM 75.2 °F - 75.2 °F 100% 29.94 in 10.0 mi Calm Calm - N/A   Mostly Cloudy
4:15 AM 75.2 °F - 75.2 °F 100% 29.94 in 10.0 mi Calm Calm - N/A   Scattered Clouds
4:35 AM 75.2 °F - 75.2 °F 100% 29.94 in 10.0 mi WNW 3.5 mph - N/A   Scattered Clouds
4:55 AM 75.2 °F - 75.2 °F 100% 29.93 in 10.0 mi NW 3.5 mph - N/A   Clear
5:15 AM 73.4 °F - 73.4 °F 100% 29.93 in 10.0 mi NW 3.5 mph - N/A   Clear
5:35 AM 75.2 °F - 75.2 °F 100% 29.92 in 10.0 mi Calm Calm - N/A   Clear
5:55 AM 75.2 °F - 75.2 °F 100% 29.92 in 10.0 mi Calm Calm - N/A   Clear
6:15 AM 75.2 °F - 75.2 °F 100% 29.93 in 10.0 mi Calm Calm - N/A   Clear
6:35 AM 73.4 °F - 73.4 °F 100% 29.95 in 10.0 mi Calm Calm - N/A   Clear
6:55 AM 73.4 °F - 73.4 °F 100% 29.95 in 10.0 mi Calm Calm - N/A   Clear
7:15 AM 75.2 °F - 75.2 °F 100% 29.95 in 10.0 mi WNW 3.5 mph - N/A   Clear
7:35 AM 77.0 °F - 77.0 °F 100% 29.95 in 10.0 mi Calm Calm - N/A   Clear
7:55 AM 77.0 °F - 77.0 °F 100% 29.97 in 10.0 mi Calm Calm - N/A   Clear
8:15 AM 80.6 °F 88.1 °F 78.8 °F 94% 29.97 in 10.0 mi Calm Calm - N/A   Clear
8:35 AM 82.4 °F 92.4 °F 78.8 °F 89% 29.97 in 10.0 mi Calm Calm - N/A   Clear
8:55 AM 82.4 °F 90.9 °F 77.0 °F 84% 29.97 in 10.0 mi ENE 4.6 mph - N/A   Clear
9:15 AM 82.4 °F 90.9 °F 77.0 °F 84% 29.97 in 10.0 mi Calm Calm - N/A   Clear
9:35 AM 84.2 °F 94.1 °F 77.0 °F 79% 29.97 in 10.0 mi Calm Calm - N/A   Clear
9:55 AM 86.0 °F 96.9 °F 77.0 °F 74% 29.98 in 10.0 mi Calm Calm - N/A   Clear
10:15 AM 86.0 °F 96.9 °F 77.0 °F 74% 29.98 in 10.0 mi Calm Calm - N/A   Clear
10:35 AM 87.8 °F 99.7 °F 77.0 °F 70% 29.97 in 10.0 mi Calm Calm - N/A   Clear
10:55 AM 87.8 °F 97.6 °F 75.2 °F 66% 29.97 in 10.0 mi East 4.6 mph - N/A   Clear
11:15 AM 87.8 °F 97.6 °F 75.2 °F 66% 29.97 in 10.0 mi Calm Calm - N/A   Clear
11:35 AM 89.6 °F 99.8 °F 75.2 °F 62% 29.96 in 10.0 mi SW 4.6 mph - N/A   Clear
12:15 PM 89.6 °F 99.8 °F 75.2 °F 62% 29.95 in 10.0 mi West 5.8 mph - N/A   Scattered Clouds
12:35 PM 91.4 °F 102.5 °F 75.2 °F 59% 29.95 in 10.0 mi WNW 3.5 mph - N/A   Scattered Clouds
12:55 PM 93.2 °F 105.0 °F 75.2 °F 56% 29.95 in 10.0 mi NNW 6.9 mph - N/A   Scattered Clouds
1:15 PM 93.2 °F 105.0 °F 75.2 °F 56% 29.95 in 10.0 mi Calm Calm - N/A   Scattered Clouds
1:35 PM 95.0 °F 109.7 °F 77.0 °F 56% 29.95 in 10.0 mi WNW 4.6 mph - N/A   Mostly Cloudy
1:55 PM 95.0 °F 104.5 °F 73.4 °F 49% 29.94 in 10.0 mi Calm Calm - N/A   Scattered Clouds
2:15 PM 96.8 °F 107.3 °F 73.4 °F 47% 29.93 in 10.0 mi WSW 9.2 mph - N/A   Scattered Clouds
2:35 PM 96.8 °F 105.1 °F 71.6 °F 44% 29.93 in 10.0 mi WNW 8.1 mph - N/A   Scattered Clouds
2:55 PM 96.8 °F 107.3 °F 73.4 °F 47% 29.92 in 10.0 mi WNW 9.2 mph - N/A   Scattered Clouds
3:15 PM 96.8 °F 105.1 °F 71.6 °F 44% 29.90 in 10.0 mi West 10.4 mph - N/A Thunderstorm Clear
3:35 PM 98.6 °F 105.5 °F 69.8 °F 39% 29.90 in 10.0 mi WNW 10.4 mph 18.4 mph N/A Thunderstorm Scattered Clouds
3:55 PM 98.6 °F 104.1 °F 68.0 °F 37% 29.90 in 10.0 mi West 12.7 mph - N/A   Scattered Clouds
4:15 PM 98.6 °F 105.5 °F 69.8 °F 39% 29.90 in 10.0 mi WNW 10.4 mph 17.3 mph N/A   Scattered Clouds
4:35 PM 98.6 °F 104.1 °F 68.0 °F 37% 29.90 in 10.0 mi WNW 15.0 mph 19.6 mph N/A   Clear
4:55 PM 98.6 °F 104.1 °F 68.0 °F 37% 29.90 in 10.0 mi NW 15.0 mph 21.9 mph N/A   Clear
5:15 PM 98.6 °F 104.1 °F 68.0 °F 37% 29.89 in 10.0 mi NW 12.7 mph 17.3 mph N/A   Clear
5:35 PM 96.8 °F 103.1 °F 69.8 °F 41% 29.88 in 10.0 mi WNW 12.7 mph 18.4 mph N/A   Clear
5:55 PM 96.8 °F 103.1 °F 69.8 °F 41% 29.88 in 10.0 mi WNW 11.5 mph 19.6 mph N/A   Scattered Clouds
6:15 PM 95.0 °F 103.2 °F 71.6 °F 47% 29.89 in 10.0 mi West 10.4 mph - N/A   Clear
6:35 PM 95.0 °F 103.2 °F 71.6 °F 47% 29.90 in 10.0 mi West 9.2 mph 16.1 mph N/A   Scattered Clouds
6:55 PM 93.2 °F 102.4 °F 73.4 °F 52% 29.91 in 10.0 mi West 6.9 mph - N/A   Scattered Clouds
7:15 PM 91.4 °F 100.1 °F 73.4 °F 55% 29.92 in 10.0 mi WSW 4.6 mph - N/A   Clear
7:35 PM 91.4 °F 100.1 °F 73.4 °F 55% 29.93 in 10.0 mi West 4.6 mph - N/A   Clear
7:55 PM 89.6 °F 99.8 °F 75.2 °F 62% 29.93 in 10.0 mi West 3.5 mph - N/A   Clear
8:15 PM 89.6 °F 102.2 °F 77.0 °F 66% 29.93 in 10.0 mi Calm Calm - N/A   Clear
8:35 PM 87.8 °F 99.7 °F 77.0 °F 70% 29.94 in 10.0 mi Calm Calm - N/A   Clear
8:55 PM 87.8 °F 97.6 °F 75.2 °F 66% 29.94 in 10.0 mi NW 5.8 mph - N/A   Clear
9:15 PM 86.0 °F 93.4 °F 73.4 °F 66% 29.95 in 10.0 mi NW 4.6 mph - N/A   Clear
9:35 PM 86.0 °F 93.4 °F 73.4 °F 66% 29.95 in 10.0 mi WNW 4.6 mph - N/A   Clear
9:55 PM 82.4 °F 88.2 °F 73.4 °F 74% 29.97 in 10.0 mi Calm Calm - N/A   Clear
10:15 PM 80.6 °F 86.2 °F 75.2 °F 84% 29.97 in 10.0 mi WNW 4.6 mph - N/A   Clear
10:35 PM 82.4 °F 87.2 °F 71.6 °F 70% 29.98 in 10.0 mi WNW 6.9 mph - N/A   Clear
10:55 PM 82.4 °F 86.3 °F 69.8 °F 66% 29.99 in 10.0 mi NW 6.9 mph - N/A   Clear
11:15 PM 82.4 °F 86.3 °F 69.8 °F 66% 29.99 in 10.0 mi NW 6.9 mph - N/A   Clear
11:35 PM 82.4 °F 85.4 °F 68.0 °F 62% 29.99 in 10.0 mi NW 5.8 mph - N/A   Clear
11:55 PM 80.6 °F 83.2 °F 68.0 °F 65% 30.00 in 10.0 mi NNW 4.6 mph - N/A   Clear